Date String (YYYY-MM-DD hh:mm:ss) UTC,Instrument flags,Ambient pressure (hPa),Sample flow (lpm),Bypass flow (lpm),Sample temperature (°C),Ambient temperature (°C),ASC tube jacket temperature (°C),LED temperature (°C),Box temperature (°C),Sample RH (%),Span deviation,Mass concentration (μg/m³),Mass concentration (μg/m³),Mass concentration (μg/m³)
DateTimeUTC,F1_M11,P_M11,Q1_M11,Q2_M11,T1_M11,T2_M11,T3_M11,T4_M11,T5_M11,U1_M11,ZSPAN_M11,X0_M11,X2_M11,X1_M11
2023-02-24 17:00:00,,0824.4,5.00,0.00,22.5,20.7,00.0,31.3,24.1,05.4,0000.0,0015.40,0008.04,0007.46
2023-02-24 17:01:00,,0824.3,5.01,0.00,22.5,21.1,00.0,31.3,24.2,05.4,0000.0,0015.70,0008.17,0007.55
2023-02-24 17:02:00,,0824.3,5.01,0.00,22.6,22.4,00.0,31.3,24.4,05.3,0000.0,0015.72,0008.26,0007.67
2023-02-24 17:03:00,,0824.3,5.05,0.00,22.7,23.1,00.0,31.3,24.6,05.3,-000.2,0015.66,0008.29,0007.76
2023-02-24 17:04:00,,0824.3,5.01,0.00,22.8,22.7,00.0,31.4,24.5,05.4,-001.6,0015.71,0008.33,0007.79
2023-02-24 17:05:00,,0824.3,5.00,0.00,22.8,22.1,00.0,31.4,24.4,05.4,-001.8,0015.20,0008.38,0007.81
2023-02-24 17:06:00,,0824.4,5.01,0.00,22.7,21.7,00.0,31.4,24.4,05.3,-001.9,0014.77,0008.43,0007.83
2023-02-24 17:07:00,,0824.4,4.98,0.00,22.7,21.4,00.0,31.4,24.3,05.3,-001.7,0014.80,0008.47,0007.87
2023-02-24 17:08:00,,0824.4,5.00,0.00,22.7,21.2,00.0,31.4,24.3,05.3,-001.7,0014.87,0008.51,0007.91
2023-02-24 17:09:00,,0824.4,5.03,0.00,22.6,21.0,00.0,31.4,24.2,05.3,-001.0,0015.04,0008.56,0007.95
2023-02-24 17:10:00,,0824.5,5.00,0.00,22.6,20.9,00.0,31.4,24.1,05.4,-000.5,0014.22,0008.60,0007.97
2023-02-24 17:11:00,,0824.5,5.01,0.00,22.6,21.1,00.0,31.4,24.2,05.4,0000.0,0014.55,0008.62,0007.99
2023-02-24 17:12:00,,0824.5,5.01,0.00,22.7,22.4,00.0,31.4,24.4,05.4,0000.4,0015.12,0008.63,0008.02
2023-02-24 17:13:00,,0824.4,4.93,0.00,22.8,23.4,00.0,31.4,24.7,05.4,0001.0,0015.33,0008.64,0008.02
2023-02-24 17:14:00,,0824.4,4.98,0.00,22.8,23.0,00.0,31.4,24.7,05.4,0001.1,0015.39,0008.65,0008.03
2023-02-24 17:15:00,,0824.4,5.00,0.00,22.8,22.4,00.0,31.4,24.6,05.4,0000.0,0015.48,0008.69,0008.05
2023-02-24 17:16:00,,0824.4,5.00,0.00,22.8,22.0,00.0,31.5,24.5,05.5,0001.4,0015.51,0008.74,0008.09
2023-02-24 17:17:00,,0824.4,5.00,0.00,22.8,21.7,00.0,31.5,24.4,05.6,0001.4,0015.56,0008.78,0008.12
2023-02-24 17:18:00,,0824.4,5.01,0.00,22.8,21.4,00.0,31.5,24.4,05.5,0000.5,0015.81,0008.81,0008.15
2023-02-24 17:19:00,,0824.5,5.01,0.00,22.8,21.3,00.0,31.5,24.4,05.4,0001.3,0015.74,0008.78,0008.16
2023-02-24 17:20:00,,0824.5,5.02,0.00,22.7,21.1,00.0,31.5,24.4,05.5,0000.8,0015.58,0008.77,0008.16
2023-02-24 17:21:00,,0824.4,5.01,0.00,22.7,21.0,00.0,31.5,24.3,05.5,0000.0,0015.43,0008.73,0008.13
2023-02-24 17:22:00,,0824.3,5.00,0.00,22.7,21.0,00.0,31.4,24.3,05.5,0000.5,0014.77,0008.72,0008.13
2023-02-24 17:23:00,,0824.3,5.02,0.00,22.7,20.9,00.0,31.4,24.3,05.5,0000.5,0014.01,0008.64,0008.07
2023-02-24 17:24:00,,0824.3,5.02,0.00,22.6,20.8,00.0,31.4,24.2,05.5,0000.3,0013.69,0008.57,0008.00
2023-02-24 17:25:00,,0824.2,5.01,0.00,22.6,20.8,00.0,31.4,24.2,05.5,0000.0,0013.72,0008.52,0007.95
2023-02-24 17:26:00,,0824.3,4.99,0.00,22.6,20.8,00.0,31.4,24.2,05.6,0000.0,0013.61,0008.45,0007.90
2023-02-24 17:27:00,,0824.3,5.00,0.00,22.6,21.9,00.0,31.4,24.4,05.6,0000.0,0013.57,0008.39,0007.85
2023-02-24 17:28:00,,0824.3,4.98,0.00,22.8,23.3,00.0,31.4,24.7,05.5,0000.0,0013.48,0008.33,0007.80
2023-02-24 17:29:00,,0824.3,5.01,0.00,22.9,23.4,00.0,31.4,24.8,05.5,0000.0,0014.06,0008.29,0007.75
2023-02-24 17:30:00,,0824.2,4.99,0.00,22.9,22.9,00.0,31.5,24.8,05.5,0000.0,0014.25,0008.25,0007.72
2023-02-24 17:31:00,,0824.2,5.01,0.00,22.9,22.4,00.0,31.5,24.7,05.5,0000.0,0014.10,0008.23,0007.70
2023-02-24 17:32:00,,0824.3,5.01,0.00,22.9,22.0,00.0,31.5,24.6,05.6,0000.0,0013.99,0008.21,0007.71
2023-02-24 17:33:00,,0824.3,5.00,0.00,22.9,21.8,00.0,31.5,24.6,05.6,0000.0,0014.04,0008.21,0007.70
2023-02-24 17:34:00,,0824.2,5.00,0.00,22.9,21.6,00.0,31.5,24.5,05.6,0000.0,0014.06,0008.25,0007.73
2023-02-24 17:35:00,,0824.3,5.01,0.00,22.8,21.5,00.0,31.5,24.5,05.6,0000.2,0014.15,0008.28,0007.79
2023-02-24 17:36:00,,0824.3,5.00,0.00,22.8,21.4,00.0,31.5,24.5,05.6,0000.7,0014.37,0008.36,0007.86
2023-02-24 17:37:00,,0824.4,5.01,0.00,22.8,21.3,00.0,31.5,24.5,05.6,0001.1,0014.40,0008.39,0007.92
2023-02-24 17:38:00,,0824.5,5.00,0.00,22.8,21.3,00.0,31.5,24.4,05.6,0000.9,0014.55,0008.46,0007.98
2023-02-24 17:39:00,,0824.5,5.00,0.00,22.8,21.2,00.0,31.5,24.4,05.6,0000.5,0014.54,0008.52,0008.04
2023-02-24 17:40:00,,0824.4,5.02,0.00,22.8,21.2,00.0,31.5,24.4,05.6,0000.9,0013.73,0008.58,0008.10
2023-02-24 17:41:00,,0824.7,5.01,0.00,22.7,21.1,00.0,31.5,24.4,05.7,0001.3,0014.10,0008.64,0008.15
2023-02-24 17:42:00,,0824.5,5.00,0.00,22.7,21.1,00.0,31.5,24.4,05.7,0000.6,0014.55,0008.66,0008.17
2023-02-24 17:43:00,,0824.6,5.01,0.00,22.7,21.1,00.0,31.5,24.3,05.7,0001.0,0014.72,0008.73,0008.19
2023-02-24 17:44:00,,0824.4,5.00,0.00,22.7,21.1,00.0,31.5,24.4,05.7,0001.2,0014.72,0008.74,0008.22
2023-02-24 17:45:00,,0824.6,5.03,0.00,22.7,21.1,00.0,31.5,24.4,05.8,0000.5,0014.84,0008.80,0008.27
2023-02-24 17:46:00,,0824.6,4.99,0.00,22.7,21.1,00.0,31.4,24.3,05.8,0000.4,0014.81,0008.83,0008.28
2023-02-24 17:47:00,,0824.5,4.97,0.00,22.7,21.1,00.0,31.4,24.3,05.8,0000.4,0014.64,0008.86,0008.30
2023-02-24 17:48:00,,0824.5,5.00,0.00,22.7,21.1,00.0,31.4,24.3,05.9,-000.5,0015.03,0008.89,0008.31
2023-02-24 17:49:00,,0824.7,4.98,0.00,22.6,21.2,00.0,31.4,24.3,05.9,-000.1,0015.00,0008.89,0008.32
2023-02-24 17:50:00,,0824.6,5.01,0.00,22.7,22.4,00.0,31.4,24.6,05.9,0000.2,0015.02,0008.89,0008.33
2023-02-24 17:51:00,,0824.8,4.94,0.00,22.9,23.8,00.0,31.4,24.9,05.9,0000.2,0015.11,0008.93,0008.35
2023-02-24 17:52:00,,0824.6,5.04,0.00,23.0,23.9,00.0,31.5,25.0,05.8,-000.1,0015.15,0008.97,0008.39
2023-02-24 17:53:00,,0824.7,5.02,0.00,23.0,23.3,00.0,31.5,24.9,05.8,0000.6,0014.85,0009.02,0008.46
2023-02-24 17:54:00,,0824.6,5.01,0.00,23.0,22.9,00.0,31.6,24.9,05.8,0000.5,0014.85,0009.05,0008.52
2023-02-24 17:55:00,,0824.4,5.01,0.00,23.0,22.5,00.0,31.6,24.8,05.8,0000.5,0014.96,0009.11,0008.57
2023-02-24 17:56:00,,0824.6,4.99,0.00,23.0,22.2,00.0,31.6,24.8,05.8,0000.7,0014.96,0009.13,0008.61
2023-02-24 17:57:00,,0824.9,5.01,0.00,23.0,22.0,00.0,31.6,24.8,05.9,0000.5,0015.10,0009.19,0008.67
2023-02-24 17:58:00,,0824.7,5.02,0.00,23.0,21.8,00.0,31.6,24.7,05.9,0000.1,0015.13,0009.22,0008.71
2023-02-24 17:59:00,,0824.8,4.98,0.00,23.0,21.7,00.0,31.6,24.7,05.9,0000.2,0014.93,0009.27,0008.77
